Flag Weather past 2 weeks in Kerpen, North Rhine-Westphalia, Germany

Now
41 °F

Partly cloudy.


Feels Like: 36 °F
Forecast: 40 / 49 °F
Wind: 7 mph from East

Location: Noervenich

Current Time: Nov 26, 2014 at 10:53:52 PM

Latest Report: Nov 26, 2014 at 9:20 PM


Visibility: N/A

Pressure: 29.92 "Hg

Humidity: 87%

Dew point: 37 °F

Location of KerpenLocation

Historic Weather in Kerpen — Graph

°F

Kerpen temperature yesterday

Maximum temperature yesterday: 46 °F (at 3:20 PM)
Minimum temperature yesterday: 28 °F (at 4:20 AM)
Average temperature yesterday: 36 °F

Past Weeks' High & Low Weather Summary

 TemperatureHumidityPressure
High55 °F (Nov 14, 12:20 PM)100% (Nov 12, 11:20 PM)30.33 "Hg (Nov 12, 11:20 PM)
Low28 °F (Nov 25, 4:20 AM)66% (Nov 21, 1:20 PM)29.53 "Hg (Nov 16, 1:20 PM)
Average45 °F89%29.93 "Hg
* Reported Nov 11 9:20 PM — Nov 26 9:20 PM, Kerpen, Weather by CustomWeather, © 2014

Note: Actual official high and low records may vary slightly from our data, if they occured in-between our weather recording intervals... More about our weather records

Advertising

Kerpen weather history for previous 24 hours

 ConditionsComfort  
Time TempWeatherWind HumidityBarometerVisibility
9:20 PM
Nov 26
41 °FPartly cloudy.7 mph87%29.92 "HgN/A
8:20 PM41 °FPartly cloudy.7 mph87%29.89 "HgN/A
7:20 PM41 °FPassing clouds.8 mph87%29.92 "Hg6 mi
6:20 PM41 °FPassing clouds.9 mph87%29.89 "Hg6 mi
5:20 PM41 °FPartly cloudy.7 mph87%29.92 "Hg5 mi
4:20 PM41 °FFog.7 mph87%29.92 "Hg3 mi
3:20 PM41 °FFog.8 mph87%29.92 "Hg3 mi
2:20 PM41 °FLight rain. Fog.8 mph87%29.95 "Hg3 mi
1:20 PM41 °FRain. Fog.8 mph87%29.95 "Hg2 mi
1:04 PM41 °FRain. Fog.7 mph87%29.95 "Hg3 mi
12:20 PM43 °FBroken clouds.8 mph76%29.98 "Hg5 mi
11:20 AM41 °FPartly sunny.6 mph81%29.98 "Hg6 mi
10:20 AM41 °FBroken clouds.8 mph81%29.98 "Hg6 mi
9:20 AM41 °FBroken clouds.7 mph76%29.98 "Hg6 mi
8:20 AM39 °FPartly sunny.8 mph81%30.01 "Hg5 mi
7:20 AM41 °FPassing clouds.7 mph81%30.01 "HgN/A
6:20 AM41 °FPassing clouds.7 mph81%30.01 "HgN/A
5:20 AM41 °FPassing clouds.8 mph81%30.01 "HgN/A
4:20 AM41 °FPassing clouds.7 mph81%30.04 "HgN/A
3:20 AM43 °FPassing clouds.9 mph81%30.04 "HgN/A
2:20 AM43 °FPassing clouds.6 mph81%30.07 "HgN/A
1:20 AM41 °FPassing clouds.7 mph87%30.07 "HgN/A
12:20 AM41 °FPassing clouds.6 mph87%30.09 "HgN/A
11:20 PM
Nov 25
41 °FPassing clouds.5 mph87%30.12 "HgN/A
10:20 PM41 °FPassing clouds.6 mph81%30.12 "HgN/A
Weather by CustomWeather, © 2014

See weather overviewHow to use our weather pages